Regional Weather Roundup
Issued by NWS

Home | Current Version | Previous Version | Graphics & Text | Print | Product List | Glossary On
Versions: 1 2 3 4 5 6 7 8 9 10 11 12 13 14 15 16 17 18 19 20 21 22 23 24 25 26 27 28 29 30 31 32 33 34 35 36 37 38 39 40 41 42 43 44 45 46 47 48 49 50
000
ASUS43 KOAX 271210
RWRNE

WEATHER ROUNDUP FOR NEBRASKA
NATIONAL WEATHER SERVICE OMAHA NE
600 AM CST THU NOV 27 2014

NOTES: SATELLITE DATA IS BEING USED TO AUGMENT CLOUD COVER ABOVE
       12000 FEET.
       "FAIR" INDICATES FEW OR NO CLOUDS BELOW 12,000 FEET WITH NO
       SIGNIFICANT WEATHER AND/OR OBSTRUCTIONS TO VISIBILITY.

  * THESE STATIONS DO NOT REPORT WEATHER SUCH AS RAIN...SNOW OR FOG.

NEZ001>004-019>022-054>056-271300-
NEBRASKA PANHANDLE

CITY           SKY/WX    TMP DP  RH WIND       PRES   REMARKS
SCOTTSBLUFF    MOCLDY    16  14  92 CALM      30.17F
6HR MIN TEMP:  11; 6HR MAX TEMP:  22;

ALLIANCE       PTCLDY    16  15  96 SE6       30.16F WCI   7
6HR MIN TEMP:  16; 6HR MAX TEMP:  25;

CHADRON        PTCLDY   N/A N/A N/A CALM      30.16F
KIMBALL        MOCLDY    27  24  86 SW12      30.16F WCI  17
SIDNEY         PTCLDY    20  17  88 SW10      30.19F WCI   9
6HR MIN TEMP:  13; 6HR MAX TEMP:  21;

$$

NEZ057>060-069>072-079>082-271300-
SOUTHWEST NEBRASKA

CITY           SKY/WX    TMP DP  RH WIND       PRES   REMARKS
NORTH PLATTE   PTCLDY    22  17  81 SE10      30.31F WCI  11
6HR MIN TEMP:  19; 6HR MAX TEMP:  26;

IMPERIAL       PTCLDY    23  19  85 S8        30.26F WCI  14
6HR MIN TEMP:  20; 6HR MAX TEMP:  29;

LEXINGTON      PTCLDY    21  17  84 SE9       30.37F WCI  10
MCCOOK         PTCLDY    20  17  88 S6        30.32F WCI  12
6HR MIN TEMP:  19; 6HR MAX TEMP:  30;

OGALLALA       PTCLDY   N/A N/A N/A CALM      30.25F
$$

NEZ005>010-023>029-035>040-094-271300-
NORTH CENTRAL NEBRASKA

CITY           SKY/WX    TMP DP  RH WIND       PRES   REMARKS
VALENTINE      CLOUDY    21  16  81 E10       30.28F WCI  10
6HR MIN TEMP:  21; 6HR MAX TEMP:  23;

AINSWORTH      CLOUDY    20  15  81 E13       30.31R WCI   8
BROKEN BOW     CLOUDY    23  16  74 VRB5      30.35F WCI  17
6HR MIN TEMP:  20; 6HR MAX TEMP:  23;

O`NEILL        CLOUDY    16   8  71 E5        30.41S WCI   9
ORD            CLOUDY    18  12  77 SE6       30.39S WCI  10
6HR MIN TEMP:  13; 6HR MAX TEMP:  19;

THEDFORD       CLOUDY    28  22  79 S8        30.28S WCI  20
$$

NEZ041-046>049-061>064-073>077-083>087-271300-
SOUTH CENTRAL NEBRASKA

CITY           SKY/WX    TMP DP  RH WIND       PRES   REMARKS
GRAND ISLAND   CLOUDY    20  13  74 S6        30.44S WCI  12
6HR MIN TEMP:  15; 6HR MAX TEMP:  20;

AURORA         CLOUDY    19  10  69 E3        30.44S
HASTINGS       CLOUDY    20  14  77 S5        30.42R WCI  13
6HR MIN TEMP:  15; 6HR MAX TEMP:  21;

HEBRON         MOCLDY    17  11  77 CALM      30.48R
HOLDREGE       PTCLDY    18  14  86 S5        30.40S WCI  11
KEARNEY *      CLOUDY    18  14  86 CALM      30.43R
YORK           CLOUDY    18  10  73 CALM      30.46R
$$

NEZ011>018-030>034-042>045-271300-
NORTHEAST NEBRASKA

CITY           SKY/WX    TMP DP  RH WIND       PRES   REMARKS
NORFOLK        CLOUDY    15   8  73 NE6       30.44F WCI   6
6HR MIN TEMP:  14; 6HR MAX TEMP:  17;

ALBION         CLOUDY    17   9  69 CALM      30.44R
BLAIR          CLOUDY    17  11  78 N9        30.46S WCI   5
COLUMBUS *     CLOUDY    16   7  67 NE3       30.47R
FREMONT        PTCLDY    17  11  78 NE3       30.48S
TEKAMAH        CLOUDY    13   1  59 N10       30.52R WCI   0
6HR MIN TEMP:  13; 6HR MAX TEMP:  19;

WAYNE          CLOUDY    13   9  82 NE8       30.48S WCI   2
$$

NEZ050>053-065>068-078-088>093-271300-
SOUTHEAST NEBRASKA

CITY           SKY/WX    TMP DP  RH WIND       PRES   REMARKS
LINCOLN        MOCLDY    16   9  74 NE6       30.48F WCI   7
6HR MIN TEMP:  12; 6HR MAX TEMP:  19;

OMAHA EPPLEY   CLOUDY    17  11  77 N13       30.51F WCI   4
6HR MIN TEMP:  15; 6HR MAX TEMP:  21;

BEATRICE       MOCLDY    15  12  87 NE3       30.47S
FALLS CITY     MOCLDY    20  15  81 N8        30.48F WCI  10
6HR MIN TEMP:  20; 6HR MAX TEMP:  24;

NEBRASKA CITY  PTCLDY    15  10  83 N3        30.49R
PLATTSMOUTH    MOCLDY    13  10  87 CALM      30.48S
$$

NEZ044-045-051>053-067-271300-
OMAHA AREA

CITY           SKY/WX    TMP DP  RH WIND       PRES   REMARKS
OMAHA EPPLEY   CLOUDY    17  11  77 N13       30.51F WCI   4
6HR MIN TEMP:  15; 6HR MAX TEMP:  21;

BLAIR          CLOUDY    17  11  78 N9        30.46S WCI   5
FREMONT        PTCLDY    17  11  78 NE3       30.48S
MILLARD        CLOUDY    17  11  77 CALM      30.49S
OFFUTT AFB     MOCLDY    16  11  79 N7        30.50S WCI   6
PLATTSMOUTH    MOCLDY    13  10  87 CALM      30.48S
WAHOO          CLOUDY    16  11  78 N8        30.47F WCI   6
$$



USA.gov is the U.S. government's official web portal to all federal, state and local government web resources and services.